Simultaneous Nadir Overpasses (SNOs) Predictions

Prediction of SNOs between GOES-15 and METOP-B Satellite Orbit:

Table of predicted SNOs for the next 14.0 days since TLE Epoch: 12/28/2018
Index Date Time (GOES-15) GOES-15 Lat,Lon METOP-B Lat,Lon Distance(km) Time Diff (sec)
1 12/29/2018 06:10:47 0.10,-128.56 -0.26,-130.22 188.88 80
2 12/30/2018 05:47:29 0.11,-128.54 0.85,-125.23 378.18 80
3 12/31/2018 18:06:21 -0.10,-128.50 0.18,-129.78 145.94 80
4 01/01/2019 17:48:23 -0.10,-128.49 -0.94,-124.79 421.86 80
5 01/03/2019 06:07:24 0.09,-128.50 -0.13,-129.38 100.77 80
6 01/04/2019 05:44:05 0.10,-128.48 0.99,-124.38 465.84 80
7 01/05/2019 18:02:58 -0.09,-128.42 0.05,-128.94 60.06 80
8 01/08/2019 06:04:02 0.07,-128.41 0.06,-128.55 15.26 80
9 01/10/2019 18:02:14 -0.06,-128.31 -0.08,-128.10 23.86 80




NCC Satellite Simultaneous Nadir Overpasses (SNOs) Prediction Service
